GIA713 WADD-WMKK

Flight info

Callsign GIA713
Flight time N/A
Altitude 40000
Route BORGI DCT UDONO M635 JUNHA DCT IRTAD A464 SJ G579 VJB A457 GUPTA GUPTA3K
Aircraft A339/H-SADE1E2E3GHIJ3J5M1P2RWXY/LB2D1

Departure

Time 2026-04-29 06:34
Airport Denpasar I Gusti Ngurah Rai International Airport (WADD)

Arrival

Time N/A
Airport Kuala Lumpur International Airport (WMKK)
Time Latitude Longitude Altitude Speed Heading
2026-04-29 06:20 -8.74553 115.16672 39 ft 0 kts 358°
2026-04-29 06:25 -8.74568 115.16674 39 ft 2 kts
2026-04-29 06:25 -8.74588 115.16668 35 ft 2 kts 263°
2026-04-29 06:25 -8.74586 115.16684 34 ft 3 kts 96°
2026-04-29 06:26 -8.74607 115.16674 37 ft 3 kts 210°
2026-04-29 06:26 -8.74611 115.16667 37 ft 0 kts 230°
2026-04-29 06:26 -8.74611 115.16668 37 ft 0 kts 230°
2026-04-29 06:26 -8.74635 115.16661 38 ft 0 kts 185°
2026-04-29 06:27 -8.74640 115.16661 38 ft 0 kts 180°
2026-04-29 06:27 -8.74654 115.16660 38 ft 0 kts 189°
2026-04-29 06:27 -8.74655 115.16660 38 ft 0 kts 189°
2026-04-29 06:28 -8.74658 115.16659 38 ft 1 kts 192°
2026-04-29 06:29 -8.74669 115.16646 38 ft 3 kts 224°
2026-04-29 06:29 -8.74681 115.16620 38 ft 5 kts 248°
2026-04-29 06:29 -8.74685 115.16577 38 ft 7 kts 266°
2026-04-29 06:29 -8.74688 115.16521 38 ft 9 kts 268°
2026-04-29 06:30 -8.74691 115.16451 38 ft 11 kts 268°
2026-04-29 06:30 -8.74697 115.16275 38 ft 14 kts 268°
2026-04-29 06:30 -8.74702 115.16173 38 ft 15 kts 268°
2026-04-29 06:31 -8.74706 115.16062 39 ft 17 kts 267°
2026-04-29 06:31 -8.74712 115.15941 37 ft 18 kts 267°
2026-04-29 06:31 -8.74717 115.15811 38 ft 19 kts 268°
2026-04-29 06:31 -8.74722 115.15674 38 ft 20 kts 268°
2026-04-29 06:32 -8.74728 115.15531 38 ft 21 kts 268°
2026-04-29 06:32 -8.74742 115.15423 37 ft 13 kts 246°
2026-04-29 06:32 -8.74821 115.15391 36 ft 14 kts 182°
2026-04-29 06:32 -8.74892 115.15455 35 ft 14 kts 103°
2026-04-29 06:33 -8.74893 115.15499 35 ft 1 kts 88°
2026-04-29 06:33 -8.74888 115.15622 34 ft 55 kts 88°
2026-04-29 06:33 -8.74862 115.16306 34 ft 136 kts 87°
2026-04-29 06:33 -8.74802 115.17476 140 ft 188 kts 86°
2026-04-29 06:34 -8.74719 115.18871 442 ft 207 kts 85°
2026-04-29 06:34 -8.74636 115.20257 719 ft 189 kts 86°
2026-04-29 06:34 -8.74547 115.21570 954 ft 186 kts 86°
2026-04-29 06:34 -8.74447 115.22886 1068 ft 187 kts 85°
2026-04-29 06:35 -8.74368 115.24195 1360 ft 188 kts 86°
2026-04-29 06:35 -8.74325 115.25514 1716 ft 190 kts 90°
2026-04-29 06:35 -8.74308 115.26860 2395 ft 191 kts 90°
2026-04-29 06:35 -8.74294 115.28200 3129 ft 192 kts 90°
2026-04-29 06:36 -8.74270 115.29555 3610 ft 194 kts 89°
2026-04-29 06:36 -8.74234 115.30921 3979 ft 195 kts 89°
2026-04-29 06:36 -8.74188 115.32292 4354 ft 196 kts 88°
2026-04-29 06:36 -8.74135 115.33671 4739 ft 197 kts 88°
2026-04-29 06:37 -8.74079 115.35067 5103 ft 201 kts 88°
2026-04-29 06:37 -8.74023 115.36493 5408 ft 208 kts 88°
2026-04-29 06:37 -8.73970 115.37963 5536 ft 211 kts 88°
2026-04-29 06:37 -8.73923 115.39449 5332 ft 212 kts 89°
2026-04-29 06:38 -8.73882 115.41004 5115 ft 238 kts 89°
2026-04-29 06:38 -8.73834 115.42760 5451 ft 261 kts 88°
2026-04-29 06:38 -8.73751 115.44653 5816 ft 278 kts 87°
2026-04-29 06:38 -8.73681 115.46120 6082 ft 289 kts 87°
2026-04-29 06:39 -8.73581 115.48202 6443 ft 304 kts 87°
2026-04-29 06:39 -8.73294 115.50359 6790 ft 317 kts 72°
2026-04-29 06:39 -8.72235 115.52345 7148 ft 330 kts 50°
2026-04-29 06:39 -8.70597 115.54010 7505 ft 338 kts 42°
2026-04-29 06:40 -8.68865 115.55590 7865 ft 341 kts 41°
2026-04-29 06:40 -8.67094 115.57215 8219 ft 342 kts 43°
2026-04-29 06:40 -8.65359 115.58872 8564 ft 344 kts 44°
2026-04-29 06:40 -8.63641 115.60566 8921 ft 346 kts 45°
2026-04-29 06:41 -8.61935 115.62279 9271 ft 348 kts 45°
2026-04-29 06:41 -8.60244 115.63991 9615 ft 349 kts 45°
2026-04-29 06:41 -8.58521 115.65737 9969 ft 351 kts 45°
2026-04-29 06:41 -8.56793 115.67478 10308 ft 352 kts 44°
2026-04-29 06:42 -8.54771 115.68882 10647 ft 354 kts 25°
2026-04-29 06:42 -8.52403 115.69552 11019 ft 356 kts
2026-04-29 06:42 -8.49932 115.69457 11373 ft 357 kts 349°
2026-04-29 06:42 -8.47616 115.68606 11712 ft 358 kts 330°
2026-04-29 06:43 -8.45686 115.67031 12089 ft 359 kts 311°
2026-04-29 06:43 -8.44365 115.64894 12441 ft 360 kts 292°
2026-04-29 06:43 -8.43809 115.62448 12793 ft 361 kts 273°
2026-04-29 06:43 -8.43997 115.59910 13157 ft 363 kts 260°
2026-04-29 06:44 -8.44476 115.57412 13506 ft 364 kts 258°
2026-04-29 06:44 -8.44897 115.54874 13858 ft 366 kts 262°
2026-04-29 06:44 -8.45157 115.52309 14208 ft 368 kts 265°
2026-04-29 06:44 -8.45303 115.49715 14560 ft 370 kts 268°
2026-04-29 06:45 -8.45391 115.47109 14911 ft 372 kts 268°
2026-04-29 06:45 -8.45456 115.44486 15262 ft 374 kts 269°
2026-04-29 06:45 -8.45518 115.41849 15613 ft 376 kts 269°
2026-04-29 06:45 -8.45582 115.39206 15963 ft 378 kts 269°
2026-04-29 06:46 -8.45651 115.36537 16314 ft 380 kts 269°
2026-04-29 06:46 -8.45725 115.33861 16665 ft 382 kts 269°
2026-04-29 06:46 -8.45801 115.31170 17016 ft 384 kts 269°
2026-04-29 06:46 -8.45878 115.28467 17367 ft 386 kts 269°
2026-04-29 06:47 -8.45958 115.25745 17721 ft 388 kts 269°
2026-04-29 06:47 -8.46040 115.23017 18089 ft 391 kts 269°
2026-04-29 06:47 -8.46123 115.20269 18464 ft 393 kts 269°
2026-04-29 06:47 -8.46207 115.17504 18840 ft 395 kts 269°
2026-04-29 06:48 -8.46290 115.14722 19216 ft 397 kts 269°
2026-04-29 06:48 -8.46374 115.11924 19587 ft 400 kts 269°
2026-04-29 06:48 -8.46457 115.09112 19968 ft 402 kts 269°
2026-04-29 06:48 -8.46541 115.06298 20341 ft 404 kts 269°
2026-04-29 06:49 -8.46575 115.03446 20715 ft 407 kts 274°
2026-04-29 06:49 -8.45985 115.00643 21098 ft 411 kts 291°
2026-04-29 06:49 -8.44632 114.98090 21467 ft 416 kts 307°
2026-04-29 06:49 -8.42613 114.95975 21839 ft 421 kts 322°
2026-04-29 06:50 -8.40126 114.94373 22216 ft 425 kts 330°
2026-04-29 06:50 -8.37521 114.92930 22600 ft 430 kts 332°
2026-04-29 06:50 -8.34877 114.91463 22980 ft 437 kts 330°
2026-04-29 06:50 -8.32248 114.89963 23354 ft 443 kts 330°
2026-04-29 06:51 -8.29558 114.88400 23737 ft 449 kts 330°
2026-04-29 06:51 -8.26848 114.86802 24108 ft 455 kts 329°
2026-04-29 06:51 -8.24102 114.85168 24482 ft 460 kts 329°
2026-04-29 06:51 -8.21330 114.83511 24869 ft 465 kts 329°
2026-04-29 06:52 -8.18539 114.81841 25238 ft 469 kts 329°
2026-04-29 06:52 -8.15724 114.80158 25610 ft 472 kts 329°
2026-04-29 06:52 -8.12887 114.78462 25988 ft 473 kts 329°
2026-04-29 06:52 -8.10051 114.76768 26362 ft 474 kts 329°
2026-04-29 06:53 -8.07208 114.75071 26730 ft 475 kts 329°
2026-04-29 06:53 -8.04362 114.73372 27102 ft 476 kts 329°
2026-04-29 06:53 -8.01514 114.71673 27486 ft 477 kts 329°
2026-04-29 06:53 -7.99618 114.70542 27725 ft 477 kts 329°
2026-04-29 06:54 -7.96764 114.68842 28110 ft 477 kts 328°
2026-04-29 06:54 -7.93902 114.67137 28480 ft 477 kts 328°
2026-04-29 06:54 -7.90073 114.64858 28994 ft 477 kts 328°
2026-04-29 06:54 -7.88179 114.63748 29233 ft 476 kts 329°
2026-04-29 06:55 -7.85287 114.62139 29606 ft 476 kts 330°
2026-04-29 06:55 -7.82357 114.60558 29982 ft 476 kts 331°
2026-04-29 06:55 -7.79442 114.58997 30355 ft 475 kts 331°
2026-04-29 06:55 -7.76518 114.57428 30730 ft 475 kts 331°
2026-04-29 06:56 -7.73600 114.55854 31107 ft 475 kts 331°
2026-04-29 06:56 -7.70687 114.54278 31477 ft 475 kts 330°
2026-04-29 06:56 -7.67813 114.52636 31855 ft 474 kts 325°
2026-04-29 06:56 -7.65286 114.50514 32230 ft 473 kts 313°
2026-04-29 06:57 -7.63270 114.47903 32598 ft 472 kts 300°
2026-04-29 06:57 -7.61864 114.44945 32963 ft 470 kts 288°
2026-04-29 06:57 -7.60820 114.41822 33345 ft 469 kts 288°
2026-04-29 06:57 -7.59778 114.38710 33717 ft 468 kts 288°
2026-04-29 06:58 -7.58699 114.35624 34085 ft 467 kts 289°
2026-04-29 06:58 -7.57490 114.32596 34445 ft 465 kts 296°
2026-04-29 06:58 -7.55783 114.29843 34830 ft 464 kts 307°
2026-04-29 06:58 -7.53587 114.27476 35204 ft 463 kts 319°
2026-04-29 06:59 -7.51012 114.25565 35591 ft 460 kts 326°
2026-04-29 06:59 -7.48326 114.23789 35833 ft 462 kts 326°
2026-04-29 06:59 -7.45644 114.21973 35938 ft 466 kts 325°
2026-04-29 07:00 -7.40321 114.18190 36006 ft 476 kts 323°
2026-04-29 07:00 -7.34932 114.14261 36006 ft 482 kts 323°
2026-04-29 07:01 -7.29483 114.10282 36010 ft 485 kts 323°
2026-04-29 07:01 -7.23993 114.06283 36006 ft 487 kts 323°
2026-04-29 07:02 -7.18495 114.02282 36006 ft 488 kts 323°
2026-04-29 07:02 -7.12987 113.98275 36007 ft 489 kts 323°
2026-04-29 07:03 -7.07473 113.94263 36006 ft 489 kts 323°
2026-04-29 07:03 -7.01961 113.90256 36007 ft 489 kts 323°
2026-04-29 07:04 -6.96431 113.86241 36008 ft 489 kts 323°
2026-04-29 07:04 -6.90912 113.82242 36009 ft 489 kts 323°
2026-04-29 07:05 -6.85385 113.78241 36004 ft 489 kts 323°
2026-04-29 07:05 -6.79861 113.74242 36009 ft 489 kts 323°
2026-04-29 07:06 -6.74339 113.70246 36005 ft 489 kts 323°
2026-04-29 07:06 -6.68824 113.66257 36008 ft 489 kts 323°
2026-04-29 07:07 -6.63297 113.62260 36005 ft 489 kts 323°
2026-04-29 07:07 -6.57767 113.58265 36008 ft 489 kts 323°
2026-04-29 07:08 -6.52244 113.54273 36009 ft 489 kts 323°
2026-04-29 07:08 -6.46733 113.50293 36006 ft 489 kts 323°
2026-04-29 07:09 -6.41198 113.46297 36007 ft 489 kts 323°
2026-04-29 07:09 -6.35715 113.42338 36007 ft 489 kts 323°
2026-04-29 07:10 -6.30186 113.38349 36007 ft 489 kts 323°
2026-04-29 07:10 -6.24909 113.34074 36006 ft 489 kts 314°
2026-04-29 07:11 -6.20563 113.28831 36007 ft 488 kts 305°
2026-04-29 07:11 -6.16514 113.23358 36007 ft 488 kts 306°
2026-04-29 07:12 -6.12398 113.17933 36005 ft 488 kts 306°
2026-04-29 07:12 -6.08241 113.12541 36008 ft 488 kts 307°
2026-04-29 07:13 -6.04072 113.07153 36007 ft 489 kts 307°
2026-04-29 07:13 -5.99902 113.01759 36007 ft 489 kts 307°
2026-04-29 07:14 -5.95735 112.96360 36007 ft 489 kts 307°
2026-04-29 07:14 -5.91575 112.90967 36006 ft 489 kts 307°
2026-04-29 07:15 -5.87430 112.85593 36005 ft 489 kts 307°
2026-04-29 07:15 -5.83262 112.80190 36008 ft 489 kts 307°
2026-04-29 07:16 -5.79092 112.74784 36007 ft 489 kts 307°
2026-04-29 07:16 -5.74920 112.69376 36007 ft 490 kts 307°
2026-04-29 07:17 -5.70749 112.63970 36010 ft 490 kts 307°
2026-04-29 07:17 -5.66577 112.58562 36007 ft 490 kts 307°
2026-04-29 07:18 -5.62407 112.53158 36006 ft 490 kts 307°
2026-04-29 07:18 -5.58233 112.47750 36005 ft 490 kts 307°
2026-04-29 07:19 -5.54060 112.42344 36005 ft 490 kts 307°
2026-04-29 07:19 -5.49882 112.36932 36004 ft 490 kts 307°
2026-04-29 07:20 -5.45713 112.31532 36004 ft 490 kts 307°
2026-04-29 07:20 -5.41536 112.26123 36009 ft 490 kts 307°
2026-04-29 07:21 -5.37356 112.20711 36007 ft 490 kts 307°
2026-04-29 07:21 -5.33176 112.15301 36008 ft 490 kts 307°
2026-04-29 07:22 -5.28999 112.09895 36008 ft 490 kts 307°
2026-04-29 07:22 -5.24822 112.04489 36007 ft 490 kts 307°
2026-04-29 07:23 -5.20637 111.99076 36010 ft 490 kts 307°
2026-04-29 07:23 -5.16458 111.93671 36007 ft 490 kts 307°
2026-04-29 07:24 -5.12284 111.88272 36009 ft 490 kts 307°
2026-04-29 07:24 -5.08103 111.82868 36008 ft 490 kts 307°
2026-04-29 07:25 -5.03920 111.77461 36007 ft 490 kts 307°
2026-04-29 07:25 -4.99737 111.72055 36006 ft 490 kts 307°
2026-04-29 07:26 -4.95554 111.66649 36009 ft 490 kts 307°
2026-04-29 07:26 -4.91403 111.61286 36007 ft 490 kts 307°
2026-04-29 07:27 -4.87220 111.55884 36009 ft 490 kts 307°
2026-04-29 07:27 -4.83040 111.50487 36008 ft 490 kts 307°
2026-04-29 07:28 -4.78847 111.45076 36007 ft 490 kts 307°
2026-04-29 07:28 -4.74665 111.39678 36007 ft 490 kts 307°
2026-04-29 07:29 -4.70481 111.34278 36007 ft 490 kts 307°
2026-04-29 07:29 -4.66297 111.28879 36007 ft 490 kts 307°
2026-04-29 07:30 -4.62119 111.23489 36007 ft 490 kts 307°
2026-04-29 07:30 -4.57934 111.18074 36007 ft 490 kts 307°
2026-04-29 07:31 -4.51689 111.09961 36007 ft 490 kts 307°
2026-04-29 07:31 -4.47520 111.04549 36005 ft 490 kts 307°
2026-04-29 07:32 -4.43352 110.99142 36009 ft 490 kts 307°
2026-04-29 07:32 -4.39182 110.93732 36007 ft 490 kts 307°
2026-04-29 07:33 -4.35012 110.88325 36006 ft 490 kts 307°
2026-04-29 07:33 -4.30839 110.82914 36007 ft 490 kts 307°
2026-04-29 07:34 -4.26669 110.77509 36005 ft 490 kts 307°
2026-04-29 07:34 -4.22529 110.72143 36009 ft 490 kts 307°
2026-04-29 07:35 -4.18360 110.66741 36007 ft 490 kts 307°
2026-04-29 07:35 -4.14181 110.61328 36006 ft 490 kts 307°
2026-04-29 07:36 -4.10013 110.55928 36009 ft 490 kts 307°
2026-04-29 07:36 -4.05846 110.50532 36007 ft 490 kts 307°
2026-04-29 07:37 -4.01671 110.45126 36007 ft 490 kts 307°
2026-04-29 07:37 -3.97490 110.39713 36008 ft 490 kts 307°
2026-04-29 07:38 -3.93223 110.34389 36010 ft 490 kts 310°
2026-04-29 07:38 -3.88747 110.29233 36007 ft 490 kts 311°
2026-04-29 07:39 -3.84275 110.24094 36007 ft 490 kts 310°
2026-04-29 07:39 -3.79819 110.18908 36006 ft 490 kts 310°
2026-04-29 07:40 -3.75371 110.13740 36009 ft 490 kts 310°
2026-04-29 07:40 -3.70920 110.08565 36007 ft 490 kts 310°
2026-04-29 07:41 -3.66473 110.03392 36007 ft 490 kts 310°
2026-04-29 07:41 -3.62029 109.98221 36006 ft 490 kts 310°
2026-04-29 07:42 -3.57578 109.93043 36005 ft 490 kts 310°
2026-04-29 07:42 -3.53886 109.88747 36007 ft 490 kts 310°
2026-04-29 07:43 -3.48715 109.82733 36007 ft 490 kts 310°
2026-04-29 07:43 -3.45023 109.78386 35976 ft 490 kts 310°
2026-04-29 07:44 -3.40580 109.73188 35928 ft 491 kts 310°
2026-04-29 07:44 -3.36136 109.67994 35859 ft 492 kts 310°
2026-04-29 07:45 -3.31682 109.62801 35826 ft 492 kts 310°
2026-04-29 07:45 -3.27215 109.57613 35789 ft 492 kts 310°
2026-04-29 07:46 -3.24984 109.55027 35912 ft 489 kts 311°
2026-04-29 07:46 -3.22773 109.52465 36102 ft 485 kts 311°
2026-04-29 07:46 -3.18384 109.47375 36111 ft 487 kts 310°
2026-04-29 07:47 -3.13955 109.42236 36064 ft 490 kts 310°
2026-04-29 07:47 -3.09494 109.37064 35958 ft 491 kts 311°
2026-04-29 07:48 -3.05018 109.31883 35848 ft 492 kts 311°
2026-04-29 07:48 -3.00552 109.26711 35955 ft 490 kts 311°
2026-04-29 07:49 -2.96105 109.21557 36009 ft 489 kts 311°
2026-04-29 07:49 -2.91664 109.16411 36009 ft 489 kts 311°
2026-04-29 07:50 -2.87214 109.11255 36008 ft 490 kts 311°
2026-04-29 07:50 -2.82762 109.06102 36011 ft 490 kts 311°
2026-04-29 07:51 -2.78308 109.00945 36007 ft 490 kts 311°
2026-04-29 07:51 -2.73849 108.95788 36008 ft 490 kts 311°
2026-04-29 07:52 -2.69393 108.90636 36006 ft 490 kts 311°
2026-04-29 07:52 -2.64936 108.85484 36011 ft 490 kts 311°
2026-04-29 07:53 -2.60472 108.80325 36010 ft 490 kts 311°
2026-04-29 07:53 -2.56013 108.75171 36008 ft 490 kts 311°
2026-04-29 07:54 -2.51560 108.70024 36011 ft 490 kts 311°
2026-04-29 07:54 -2.47103 108.64873 36008 ft 490 kts 311°
2026-04-29 07:55 -2.42649 108.59720 36009 ft 490 kts 311°
2026-04-29 07:55 -2.38194 108.54556 36009 ft 490 kts 311°
2026-04-29 07:56 -2.33746 108.49398 36009 ft 490 kts 311°
2026-04-29 07:56 -2.29299 108.44241 36008 ft 490 kts 311°
2026-04-29 07:57 -2.24854 108.39087 36009 ft 490 kts 311°
2026-04-29 07:57 -2.20405 108.33930 36011 ft 490 kts 311°
2026-04-29 07:58 -2.15958 108.28775 36009 ft 490 kts 311°
2026-04-29 07:58 -2.11515 108.23625 36007 ft 490 kts 311°
2026-04-29 07:59 -2.07058 108.18459 36012 ft 490 kts 311°
2026-04-29 07:59 -2.02610 108.13304 36009 ft 490 kts 311°
2026-04-29 08:00 -1.98166 108.08148 36010 ft 490 kts 311°
2026-04-29 08:00 -1.93724 108.02996 36009 ft 490 kts 311°
2026-04-29 08:01 -1.89280 107.97840 36012 ft 490 kts 311°
2026-04-29 08:01 -1.84826 107.92675 36010 ft 490 kts 311°
2026-04-29 08:02 -1.80378 107.87517 36011 ft 490 kts 311°
2026-04-29 08:02 -1.75933 107.82363 36008 ft 490 kts 311°
2026-04-29 08:03 -1.71485 107.77206 36007 ft 490 kts 311°
2026-04-29 08:03 -1.67069 107.72086 36011 ft 490 kts 311°
2026-04-29 08:04 -1.62617 107.66918 34401 ft 493 kts 312°
2026-04-29 08:04 -1.58139 107.61673 34533 ft 496 kts 312°
2026-04-29 08:05 -1.55894 107.59073 34855 ft 492 kts 312°
2026-04-29 08:05 -1.53666 107.56496 35196 ft 488 kts 312°
2026-04-29 08:05 -1.51461 107.53948 35539 ft 485 kts 312°
2026-04-29 08:05 -1.49252 107.51393 35690 ft 488 kts 312°
2026-04-29 08:06 -1.44791 107.46230 35831 ft 493 kts 312°
2026-04-29 08:06 -1.40282 107.41009 35825 ft 499 kts 312°
2026-04-29 08:07 -1.38005 107.38373 35647 ft 504 kts 312°
2026-04-29 08:07 -1.35703 107.35709 35424 ft 509 kts 312°
2026-04-29 08:07 -1.33358 107.33036 35179 ft 511 kts 313°
2026-04-29 08:07 -1.31003 107.30377 34944 ft 512 kts 313°
2026-04-29 08:08 -1.28634 107.27715 34713 ft 512 kts 313°
2026-04-29 08:08 -1.26269 107.25057 34486 ft 513 kts 313°
2026-04-29 08:08 -1.23895 107.22392 34250 ft 513 kts 313°
2026-04-29 08:08 -1.21526 107.19727 34031 ft 514 kts 313°
2026-04-29 08:09 -1.19159 107.17060 33809 ft 514 kts 313°
2026-04-29 08:09 -1.16787 107.14383 33557 ft 515 kts 313°
2026-04-29 08:09 -1.14400 107.11698 33300 ft 515 kts 313°
2026-04-29 08:09 -1.12019 107.09023 33051 ft 516 kts 313°
2026-04-29 08:10 -1.09637 107.06344 32799 ft 517 kts 313°
2026-04-29 08:10 -1.07246 107.03653 32554 ft 518 kts 313°
2026-04-29 08:10 -1.04852 107.00956 32311 ft 518 kts 313°
2026-04-29 08:10 -1.02456 106.98257 32069 ft 519 kts 313°
2026-04-29 08:11 -1.00063 106.95560 31896 ft 519 kts 313°
2026-04-29 08:11 -0.97711 106.92908 31838 ft 518 kts 313°
2026-04-29 08:11 -0.92909 106.87493 31834 ft 515 kts 313°
2026-04-29 08:12 -0.88165 106.82147 31831 ft 513 kts 313°
2026-04-29 08:12 -0.83435 106.76819 31832 ft 512 kts 313°
2026-04-29 08:13 -0.78746 106.71543 31834 ft 512 kts 313°
2026-04-29 08:13 -0.74022 106.66224 31833 ft 511 kts 313°
2026-04-29 08:14 -0.69293 106.60899 31833 ft 511 kts 313°
2026-04-29 08:14 -0.64587 106.55595 31833 ft 511 kts 313°
2026-04-29 08:15 -0.59869 106.50274 31831 ft 511 kts 313°
2026-04-29 08:15 -0.55190 106.44934 31832 ft 511 kts 312°
2026-04-29 08:16 -0.50520 106.39590 31834 ft 511 kts 312°
2026-04-29 08:16 -0.45838 106.34239 31838 ft 511 kts 312°
2026-04-29 08:17 -0.41165 106.28901 31833 ft 511 kts 312°
2026-04-29 08:17 -0.36488 106.23561 31833 ft 511 kts 312°
2026-04-29 08:18 -0.31807 106.18216 31834 ft 511 kts 312°
2026-04-29 08:18 -0.27135 106.12879 31832 ft 510 kts 312°
2026-04-29 08:19 -0.22460 106.07538 31832 ft 510 kts 312°
2026-04-29 08:19 -0.17832 106.02251 31834 ft 510 kts 312°
2026-04-29 08:20 -0.13142 105.96893 31832 ft 510 kts 312°
2026-04-29 08:20 -0.08471 105.91557 31835 ft 510 kts 312°
2026-04-29 08:21 -0.03800 105.86222 31833 ft 510 kts 312°
2026-04-29 08:21 0.00878 105.80880 31833 ft 510 kts 312°
2026-04-29 08:22 0.05550 105.75543 31836 ft 510 kts 312°
2026-04-29 08:22 0.10224 105.70204 31835 ft 510 kts 312°
2026-04-29 08:23 0.14896 105.64869 31835 ft 510 kts 312°
2026-04-29 08:23 0.19567 105.59533 31837 ft 510 kts 312°
2026-04-29 08:24 0.24245 105.54190 31836 ft 510 kts 312°
2026-04-29 08:24 0.28916 105.48854 31836 ft 510 kts 312°
2026-04-29 08:25 0.33591 105.43514 31832 ft 510 kts 312°
2026-04-29 08:25 0.38264 105.38177 31835 ft 510 kts 312°
2026-04-29 08:26 0.42520 105.32577 31833 ft 511 kts 302°
2026-04-29 08:26 0.46003 105.26706 31760 ft 513 kts 301°
2026-04-29 08:27 0.47803 105.23616 31531 ft 517 kts 301°
2026-04-29 08:27 0.49619 105.20501 31298 ft 520 kts 301°
2026-04-29 08:27 0.51450 105.17374 31063 ft 522 kts 301°
2026-04-29 08:27 0.53288 105.14247 30833 ft 523 kts 301°
2026-04-29 08:28 0.55135 105.11113 30601 ft 524 kts 301°
2026-04-29 08:28 0.56989 105.07972 30384 ft 524 kts 301°
2026-04-29 08:28 0.58841 105.04837 30149 ft 525 kts 301°
2026-04-29 08:28 0.60696 105.01696 29920 ft 526 kts 301°
2026-04-29 08:29 0.62475 104.98686 29694 ft 526 kts 301°
2026-04-29 08:29 0.64337 104.95535 29422 ft 527 kts 301°
2026-04-29 08:29 0.66203 104.92378 29152 ft 527 kts 301°
2026-04-29 08:29 0.67718 104.89813 28968 ft 527 kts 301°
2026-04-29 08:30 0.69328 104.87089 28793 ft 527 kts 301°
2026-04-29 08:30 0.73042 104.80803 28504 ft 525 kts 301°
2026-04-29 08:30 0.74898 104.77661 28381 ft 524 kts 301°
2026-04-29 08:31 0.76149 104.75543 28322 ft 524 kts 301°
2026-04-29 08:31 0.79792 104.69377 28136 ft 523 kts 301°
2026-04-29 08:32 0.83457 104.63174 28015 ft 522 kts 301°
2026-04-29 08:32 0.85301 104.60054 27974 ft 521 kts 301°
2026-04-29 08:32 0.87170 104.56891 27935 ft 521 kts 301°
2026-04-29 08:32 0.89012 104.53775 27904 ft 521 kts 301°
2026-04-29 08:33 0.90786 104.50673 27850 ft 521 kts 298°
2026-04-29 08:33 0.92349 104.47523 27816 ft 515 kts 296°
2026-04-29 08:33 0.93879 104.44342 27603 ft 507 kts 296°
2026-04-29 08:33 0.95373 104.41212 27254 ft 507 kts 296°
2026-04-29 08:34 0.96915 104.37984 26893 ft 508 kts 296°
2026-04-29 08:34 0.98412 104.34861 26544 ft 508 kts 296°
2026-04-29 08:34 0.99944 104.31675 26185 ft 509 kts 296°
2026-04-29 08:34 1.01481 104.28482 25892 ft 509 kts 296°
2026-04-29 08:35 1.03015 104.25301 25642 ft 507 kts 296°
2026-04-29 08:35 1.04542 104.22135 25379 ft 506 kts 296°
2026-04-29 08:35 1.05964 104.19189 25170 ft 505 kts 296°
2026-04-29 08:35 1.07487 104.16037 24953 ft 503 kts 296°
2026-04-29 08:36 1.09021 104.12864 24865 ft 499 kts 296°
2026-04-29 08:36 1.10501 104.09800 24837 ft 494 kts 296°
2026-04-29 08:36 1.11851 104.07005 24835 ft 490 kts 296°
2026-04-29 08:36 1.12492 104.05678 24837 ft 488 kts 296°
2026-04-29 08:37 1.13530 104.03531 24834 ft 485 kts 296°
2026-04-29 08:37 1.14985 104.00521 24837 ft 481 kts 296°
2026-04-29 08:37 1.16431 103.97527 24834 ft 477 kts 296°
2026-04-29 08:37 1.17837 103.94615 24835 ft 473 kts 296°
2026-04-29 08:38 1.19110 103.91981 24836 ft 470 kts 296°
2026-04-29 08:38 1.20532 103.89035 24720 ft 470 kts 296°
2026-04-29 08:38 1.22174 103.86211 24496 ft 472 kts 306°
2026-04-29 08:38 1.24329 103.83735 24283 ft 473 kts 317°
2026-04-29 08:39 1.26923 103.81717 24068 ft 474 kts 328°
2026-04-29 08:39 1.29858 103.80231 23857 ft 474 kts 339°
2026-04-29 08:39 1.32962 103.79124 23644 ft 475 kts 342°
2026-04-29 08:39 1.36073 103.78017 23404 ft 477 kts 340°
2026-04-29 08:40 1.39158 103.76751 23151 ft 479 kts 337°
2026-04-29 08:40 1.42188 103.75361 22900 ft 480 kts 335°
2026-04-29 08:40 1.45188 103.73872 22652 ft 481 kts 334°
2026-04-29 08:40 1.48156 103.72340 22398 ft 481 kts 333°
2026-04-29 08:41 1.51195 103.70940 22157 ft 479 kts 339°
2026-04-29 08:41 1.54321 103.69819 21985 ft 477 kts 342°
2026-04-29 08:41 1.57461 103.68790 21818 ft 476 kts 343°
2026-04-29 08:41 1.60597 103.67792 21781 ft 471 kts 342°
2026-04-29 08:42 1.63577 103.66474 21785 ft 468 kts 331°
2026-04-29 08:42 1.66214 103.64581 21782 ft 465 kts 319°
2026-04-29 08:42 1.68388 103.62205 21781 ft 463 kts 307°
2026-04-29 08:42 1.70021 103.59458 21783 ft 459 kts 296°
2026-04-29 08:43 1.71327 103.56557 21787 ft 456 kts 293°
2026-04-29 08:43 1.72558 103.53654 21796 ft 453 kts 293°
2026-04-29 08:43 1.73816 103.50791 21799 ft 450 kts 294°
2026-04-29 08:43 1.75121 103.47982 21804 ft 440 kts 295°
2026-04-29 08:44 1.76413 103.45301 21809 ft 419 kts 296°
2026-04-29 08:44 1.77678 103.42733 21817 ft 406 kts 297°
2026-04-29 08:44 1.78946 103.40182 21822 ft 413 kts 297°
2026-04-29 08:44 1.80228 103.37607 21825 ft 414 kts 297°
2026-04-29 08:45 1.81504 103.35039 21834 ft 412 kts 297°
2026-04-29 08:45 1.82775 103.32473 21832 ft 413 kts 297°
2026-04-29 08:45 1.84043 103.29908 21830 ft 412 kts 297°
2026-04-29 08:45 1.85314 103.27332 21830 ft 413 kts 297°
2026-04-29 08:46 1.86581 103.24762 21825 ft 412 kts 297°
2026-04-29 08:46 1.87847 103.22193 21749 ft 413 kts 297°
2026-04-29 08:46 1.89117 103.19613 21513 ft 411 kts 297°
2026-04-29 08:46 1.90372 103.17063 21273 ft 408 kts 297°
2026-04-29 08:47 1.91622 103.14525 21030 ft 407 kts 297°
2026-04-29 08:47 1.92871 103.11989 20788 ft 405 kts 297°
2026-04-29 08:47 1.94115 103.09464 20549 ft 404 kts 297°
2026-04-29 08:47 1.95355 103.06946 20318 ft 402 kts 297°
2026-04-29 08:48 1.96585 103.04449 20078 ft 401 kts 297°
2026-04-29 08:48 1.97811 103.01958 19853 ft 399 kts 297°
2026-04-29 08:48 1.99038 102.99464 19629 ft 398 kts 297°
2026-04-29 08:48 2.00255 102.96991 19398 ft 396 kts 297°
2026-04-29 08:49 2.01470 102.94518 19166 ft 395 kts 297°
2026-04-29 08:49 2.02680 102.92058 18942 ft 394 kts 297°
2026-04-29 08:49 2.03867 102.89641 18720 ft 392 kts 297°
2026-04-29 08:49 2.05083 102.87166 18495 ft 391 kts 297°
2026-04-29 08:50 2.06275 102.84733 18268 ft 390 kts 297°
2026-04-29 08:50 2.07466 102.82298 18048 ft 388 kts 297°
2026-04-29 08:50 2.08647 102.79879 17799 ft 386 kts 297°
2026-04-29 08:50 2.09822 102.77472 17539 ft 385 kts 297°
2026-04-29 08:51 2.10993 102.75075 17294 ft 383 kts 297°
2026-04-29 08:51 2.12158 102.72691 17043 ft 381 kts 297°
2026-04-29 08:51 2.13320 102.70310 16796 ft 380 kts 297°
2026-04-29 08:51 2.14478 102.67939 16551 ft 379 kts 297°
2026-04-29 08:52 2.15614 102.65612 16308 ft 377 kts 297°
2026-04-29 08:52 2.16854 102.63268 16066 ft 375 kts 303°
2026-04-29 08:52 2.18248 102.61108 15824 ft 374 kts 305°
2026-04-29 08:52 2.19676 102.58944 15588 ft 373 kts 305°
2026-04-29 08:53 2.21089 102.56777 15353 ft 371 kts 304°
2026-04-29 08:53 2.22477 102.54612 15120 ft 370 kts 304°
2026-04-29 08:53 2.23846 102.52441 14893 ft 369 kts 304°
2026-04-29 08:53 2.25201 102.50271 14671 ft 367 kts 303°
2026-04-29 08:54 2.26547 102.48108 14432 ft 366 kts 303°
2026-04-29 08:54 2.27887 102.45956 14199 ft 364 kts 303°
2026-04-29 08:54 2.29222 102.43811 13981 ft 363 kts 303°
2026-04-29 08:54 2.30556 102.41671 13874 ft 362 kts 303°
2026-04-29 08:55 2.31884 102.39543 13823 ft 362 kts 303°
2026-04-29 08:55 2.33222 102.37401 13819 ft 362 kts 303°
2026-04-29 08:55 2.34557 102.35267 13820 ft 363 kts 303°
2026-04-29 08:55 2.35895 102.33127 13818 ft 362 kts 303°
2026-04-29 08:56 2.37232 102.30991 13819 ft 363 kts 303°
2026-04-29 08:56 2.38566 102.28859 13815 ft 362 kts 303°
2026-04-29 08:56 2.39905 102.26718 13817 ft 362 kts 303°
2026-04-29 08:56 2.41152 102.24726 13816 ft 363 kts 303°
2026-04-29 08:57 2.42488 102.22591 13816 ft 362 kts 303°
2026-04-29 08:57 2.43821 102.20461 13818 ft 362 kts 303°
2026-04-29 08:57 2.45162 102.18319 13816 ft 363 kts 303°
2026-04-29 08:57 2.46488 102.16202 13816 ft 363 kts 303°
2026-04-29 08:58 2.47828 102.14063 13822 ft 363 kts 303°
2026-04-29 08:58 2.49145 102.11961 13819 ft 363 kts 304°
2026-04-29 08:58 2.50488 102.09817 13819 ft 363 kts 303°
2026-04-29 08:58 2.51830 102.07676 13818 ft 363 kts 303°
2026-04-29 08:59 2.53169 102.05541 13814 ft 363 kts 303°
2026-04-29 08:59 2.54511 102.03401 13817 ft 363 kts 303°
2026-04-29 08:59 2.55853 102.01260 13817 ft 363 kts 303°
2026-04-29 08:59 2.57192 101.99125 13814 ft 363 kts 303°
2026-04-29 09:00 2.58534 101.96988 13816 ft 363 kts 303°
2026-04-29 09:00 2.59648 101.95211 13813 ft 363 kts 303°
2026-04-29 09:00 2.61000 101.93055 13815 ft 362 kts 303°
2026-04-29 09:00 2.62440 101.91035 13811 ft 361 kts 311°
2026-04-29 09:01 2.64237 101.89257 13722 ft 354 kts 322°
2026-04-29 09:01 2.66178 101.87895 13485 ft 339 kts 329°
2026-04-29 09:01 2.68135 101.86647 13138 ft 328 kts 330°
2026-04-29 09:01 2.70036 101.85439 12768 ft 320 kts 329°
2026-04-29 09:02 2.71882 101.84247 12400 ft 312 kts 329°
2026-04-29 09:02 2.73688 101.83062 12027 ft 311 kts 329°
2026-04-29 09:02 2.75486 101.81867 11667 ft 310 kts 328°
2026-04-29 09:02 2.77261 101.80678 11306 ft 304 kts 328°
2026-04-29 09:03 2.78989 101.79513 10948 ft 296 kts 328°
2026-04-29 09:03 2.80673 101.78374 10569 ft 289 kts 328°
2026-04-29 09:03 2.82335 101.77251 10104 ft 286 kts 329°
2026-04-29 09:03 2.83971 101.76149 9654 ft 283 kts 329°
2026-04-29 09:04 2.85597 101.75056 9179 ft 278 kts 329°
2026-04-29 09:04 2.87162 101.74003 8928 ft 265 kts 329°
2026-04-29 09:04 2.88662 101.72991 8672 ft 253 kts 329°
2026-04-29 09:04 2.90095 101.72025 8416 ft 244 kts 329°
2026-04-29 09:05 2.91481 101.71093 8176 ft 237 kts 329°
2026-04-29 09:05 2.92835 101.70180 7936 ft 232 kts 329°
2026-04-29 09:05 2.94156 101.69292 7699 ft 227 kts 329°
2026-04-29 09:05 2.95482 101.68406 7465 ft 233 kts 329°
2026-04-29 09:06 2.96824 101.67511 7229 ft 231 kts 329°
2026-04-29 09:06 2.98148 101.66624 6990 ft 228 kts 329°
2026-04-29 09:06 2.99577 101.65981 6746 ft 227 kts 353°
2026-04-29 09:06 3.01201 101.66102 6543 ft 241 kts 21°
2026-04-29 09:07 3.02598 101.66991 6323 ft 240 kts 48°
2026-04-29 09:07 3.03383 101.68429 6076 ft 235 kts 77°
2026-04-29 09:07 3.03354 101.70043 5838 ft 236 kts 105°
2026-04-29 09:07 3.02511 101.71449 5607 ft 241 kts 134°
2026-04-29 09:08 3.01076 101.72315 5383 ft 243 kts 155°
2026-04-29 09:08 2.99524 101.73021 5128 ft 245 kts 152°
2026-04-29 09:08 2.98033 101.73821 4896 ft 242 kts 148°
2026-04-29 09:08 2.96595 101.74710 4659 ft 242 kts 145°
2026-04-29 09:09 2.95162 101.75580 4394 ft 242 kts 155°
2026-04-29 09:09 2.93485 101.75866 4167 ft 258 kts 183°
2026-04-29 09:09 2.91741 101.75340 3946 ft 267 kts 211°
2026-04-29 09:09 2.90431 101.74104 3854 ft 263 kts 237°
2026-04-29 09:10 2.89819 101.72397 3822 ft 262 kts 265°
2026-04-29 09:10 2.90053 101.70618 3810 ft 261 kts 292°
2026-04-29 09:10 2.91087 101.69138 3808 ft 260 kts 320°
2026-04-29 09:10 2.92625 101.68202 3806 ft 259 kts 334°
2026-04-29 09:11 2.94245 101.67408 3815 ft 256 kts 335°
2026-04-29 09:11 2.95005 101.67039 3813 ft 249 kts 335°